Regional Weather Roundup
Issued by NWS

Home | Current Version | Previous Version | Graphics & Text | Print | Product List | Glossary On
Versions: 1 2 3 4 5 6 7 8 9 10 11 12 13 14 15 16 17 18 19 20 21 22 23 24 25 26 27 28 29 30 31 32 33 34 35 36 37 38 39 40 41 42 43 44 45 46 47 48 49 50
000
ASUS43 KLOT 102100
RWRIL

ILLINOIS REGIONAL WEATHER ROUNDUP
NATIONAL WEATHER SERVICE CHICAGO/ROMEOVILLE IL
400 PM CDT THU JUL 10 2014

NOTE: "FAIR" INDICATES FEW OR NO CLOUDS BELOW 12,000 FEET WITH NO
SIGNIFICANT WEATHER AND/OR OBSTRUCTIONS TO VISIBILITY.

* THESE STATIONS ARE NOT UNDER NWS QUALITY CONTROL. THEY ALSO MAY NOT
  REPORT WEATHER SUCH AS PRECIPITATION OR FOG.

ILZ001-002-007-009-015-016-024-102200-
NORTHWEST ILLINOIS

CITY           SKY/WX    TMP DP  RH WIND       PRES   REMARKS
MOLINE         PTSUNNY   81  59  47 S7        30.11F HX  81
STERLING*      MOSUNNY   81  61  50 CALM      30.13S HX  81
$$

ILZ003-004-008-010-011-017-018-102200-
NORTH CENTRAL ILLINOIS

CITY           SKY/WX    TMP DP  RH WIND       PRES   REMARKS
ROCKFORD       MOSUNNY   80  58  46 S8        30.14F HX  80
$$

ILZ005-006-012>014-019>023-102200-
NORTHEAST ILLINOIS

CITY           SKY/WX    TMP DP  RH WIND       PRES   REMARKS
CHICAGO-OHARE  MOSUNNY   77  54  44 E9        30.15S
CHICAGO-MIDWAY MOSUNNY   77  53  43 E13       30.15F
AURORA         SUNNY     79  53  40 N8        30.14F
WAUKEGAN       SUNNY     70  56  61 E9        30.16F
DUPAGE AIRPORT MOSUNNY   80  53  39 VRB6      30.14F HX  80
WHEELING       SUNNY     75  53  46 E10       30.17S
NORTHERLY ISL    N/A     70  60  70 E8          N/A
$$

LMZ740>746-102200-
SOUTHERN LAKE MICHIGAN

STATION/POSITION SKY/WX   TEMP    WIND        PRES    VSBY  WAVE
                          AIR SEA DIR/SP/G                  HT/PER
                          (F)     (DEG/KT/KT) (MB)    (MI)  (FT/S)
SOUTHERN BUOY              63 64  160/  2/  4 1022.6F         0
WAUKEGAN HARBOR            66     130/  8/  9 1022.7S
HARRISON CRIB              66      90/ 12/ 14   N/A
BURNHAM HARBOR             69      90/ 10       N/A
CALUMET HARBOR             69      60/ 10/ 13 1022.2F
MICHIGAN CITY              68      10/  7/  9   N/A
$$

ILZ025>027-034>036-040-047-049-050-058-095>099-102200-
WEST-CENTRAL ILLINOIS

CITY           SKY/WX    TMP DP  RH WIND       PRES   REMARKS
QUINCY         SUNNY     81  53  37 SE9       30.11F HX  80
$$

ILZ028>032-037-038-041>044-048-051>054-059>061-102200-
CENTRAL ILLINOIS

CITY           SKY/WX    TMP DP  RH WIND       PRES   REMARKS
DECATUR        SUNNY     80  54  40 NE9       30.14S HX  80
PEORIA         CLOUDY    79  56  45 E3        30.13S HX  80
SPRINGFIELD    MOSUNNY   82  58  43 E8        30.13F HX  82
TAYLORVILLE    NOT AVBL
$$

ILZ033-039-045-046-055>057-062-063-102200-
EAST-CENTRAL ILLINOIS

CITY           SKY/WX    TMP DP  RH WIND       PRES   REMARKS
CHAMPAIGN      MOSUNNY   80  54  40 E13       30.15S HX  80
MATTOON        MOSUNNY   80  52  37 NE8       30.12F HX  80
$$

ILZ079-100>102-102200-
SOUTHWEST ILLINOIS

CITY           SKY/WX    TMP DP  RH WIND       PRES   REMARKS
ALTON          MOSUNNY   82  54  36 SE7       30.11F HX  81
BELLEVILLE     MOSUNNY   83  56  39 VRB5      30.09F HX  82
CAHOKIA*       MOSUNNY   85  55  35 VRB6      30.09F HX  83
$$

ILZ064>066-069>071-074>076-080>082-084>086-088>090-092>094-102200-
SOUTH-CENTRAL ILLINOIS

CITY           SKY/WX    TMP DP  RH WIND       PRES   REMARKS
CARBONDALE     PTSUNNY   83  58  42 CALM      30.09F HX  83
MARION         PTSUNNY   82  61  47 NE6       30.10F HX  83
MT. VERNON     SUNNY     84  57  39 E6        30.11S HX  83
$$

ILZ067-068-072-073-078-083-087-091-102200-
SOUTHEAST ILLINOIS

CITY           SKY/WX    TMP DP  RH WIND       PRES   REMARKS
$$

ABBREVIATIONS USED IN REMARKS
   TC - TEMPERATURE IN CELSIUS
  WCI - WIND CHILL INDEX
   HX - HEAT INDEX
  VSB - VISIBILITY
$$




USA.gov is the U.S. government's official web portal to all federal, state and local government web resources and services.